Location: ????????
(55.7667°N, 37.4833°E)
Time: 14:23:43
(UTC+00:00)

ISS - Pass Details

Date: 19 May 2025
Orbit: 415 x 418 km, 51.6° (Epoch: 20 June)

Event Time Altitude Azimuth Distance (km) Brightness Sun altitude
Rises 18:35:35 0° 269° (W) 2,363 0.7 -6.1°
Reaches altitude 10° 18:37:48 10° 260° (W) 1,497 -0.5 -6.3°
Maximum altitude 18:40:51 33° 194° (SSW) 727 -2.8 -6.6°
Drops below altitude 10° 18:43:54 10° 129° (SE) 1,491 -1.6 -6.8°
Enters shadow 18:44:11 - 127° (SE) 1,599 -1.4 -6.9°
